Regional Weather Roundup
Issued by NWS

Home | Current Version | Previous Version | Graphics & Text | Print | Product List | Glossary On
Versions: 1 2 3 4 5 6 7 8 9 10 11 12 13 14 15 16 17 18 19 20 21 22 23 24 25 26 27 28 29 30 31 32 33 34 35 36 37 38 39 40 41 42 43 44 45 46 47 48 49 50
000
ASUS43 KOAX 280210
RWRNE

WEATHER ROUNDUP FOR NEBRASKA
NATIONAL WEATHER SERVICE OMAHA NE
800 PM CST MON FEB 27 2017

NOTES: SATELLITE DATA IS BEING USED TO AUGMENT CLOUD COVER ABOVE
       12000 FEET.
       "FAIR" INDICATES FEW OR NO CLOUDS BELOW 12,000 FEET WITH NO
       SIGNIFICANT WEATHER AND/OR OBSTRUCTIONS TO VISIBILITY.

  * THESE STATIONS DO NOT REPORT WEATHER SUCH AS RAIN...SNOW OR FOG.

NEZ001>004-019>022-054>056-280300-
NEBRASKA PANHANDLE

CITY           SKY/WX    TMP DP  RH WIND       PRES   REMARKS
SCOTTSBLUFF    CLOUDY    33  27  78 N9        29.64R WCI  25
ALLIANCE       CLOUDY    30  22  72 N12       29.63R WCI  20
CHADRON        LGT SNOW  32  28  85 S3        29.65S FOG
KIMBALL        CLOUDY    30  27  88 N15       29.62R WCI  19
SIDNEY         CLOUDY    35  24  64 N17       29.61R WCI  25
$$

NEZ057>060-069>072-079>082-280300-
SOUTHWEST NEBRASKA

CITY           SKY/WX    TMP DP  RH WIND       PRES   REMARKS
NORTH PLATTE   CLEAR     36  23  59 SE10      29.57F WCI  28
IMPERIAL       CLOUDY    43  20  39 SE15      29.53F
LEXINGTON      CLEAR     37  26  63 E8        29.61F WCI  31
MCCOOK         CLOUDY    46  21  37 SE10      29.57F
OGALLALA       CLEAR     40  26  59 E8        29.54R WCI  34
$$

NEZ005>010-023>029-035>040-094-280300-
NORTH CENTRAL NEBRASKA

CITY           SKY/WX    TMP DP  RH WIND       PRES   REMARKS
VALENTINE      MOCLDY    34  28  79 N6        29.64R WCI  29
AINSWORTH      CLEAR     32  30  93 E8        29.62F WCI  25
BROKEN BOW     CLEAR     30  26  85 CALM      29.62F
O`NEILL        CLEAR     36  31  85 E6        29.67S WCI  31
ORD            CLEAR     39  31  72 SE6       29.64F WCI  35
THEDFORD       CLEAR     38  30  74 SE5       29.58F WCI  34
$$

NEZ041-046>049-061>064-073>077-083>087-280300-
SOUTH CENTRAL NEBRASKA

CITY           SKY/WX    TMP DP  RH WIND       PRES   REMARKS
GRAND ISLAND   CLEAR     45  40  82 SE10      29.68S
AURORA         CLOUDY    41  37  85 SE9       29.69S
HASTINGS       CLOUDY    48  40  73 SE9       29.67F
HEBRON         PTCLDY    46  38  75 SE6       29.70F
HOLDREGE       CLOUDY    38  22  52 SE8       29.62F WCI  32
KEARNEY *      CLOUDY    39  27  60 SE10      29.65F WCI  32
YORK           PTCLDY    46  37  71 SE12      29.70S
$$

NEZ011>018-030>034-042>045-280300-
NORTHEAST NEBRASKA

CITY           SKY/WX    TMP DP  RH WIND       PRES   REMARKS
NORFOLK        CLEAR     38  30  73 SE8       29.70S WCI  32
ALBION         CLEAR     40  34  77 SE5       29.69S
BLAIR          MOCLDY    44  31  60 E8        29.74S
FREMONT        CLEAR     44  32  62 SE7       29.73S
TEKAMAH        CLEAR     37  30  75 SE3       29.75R
WAYNE          CLEAR     39  32  76 S10       29.72S WCI  32
$$

NEZ050>053-065>068-078-088>093-280300-
SOUTHEAST NEBRASKA

CITY           SKY/WX    TMP DP  RH WIND       PRES   REMARKS
LINCOLN        CLOUDY    47  35  63 SE3       29.73F
OMAHA EPPLEY   PTCLDY    45  29  53 SE7       29.75S
BEATRICE       PTCLDY    49  38  67 SE6       29.73R
FALLS CITY     CLEAR     50  34  54 S8        29.75R
NEBRASKA CITY  PTCLDY    49  29  45 SE6       29.74S
PLATTSMOUTH    CLOUDY    48  31  51 SE3       29.74S
$$

NEZ044-045-051>053-067-280300-
OMAHA AREA

CITY           SKY/WX    TMP DP  RH WIND       PRES   REMARKS
OMAHA EPPLEY   PTCLDY    45  29  53 SE7       29.75S
BLAIR          MOCLDY    44  31  60 E8        29.74S
FREMONT        CLEAR     44  32  62 SE7       29.73S
MILLARD        CLOUDY    47  32  57 CALM      29.75R
OFFUTT AFB     MOCLDY    44  32  62 E5        29.74F
PLATTSMOUTH    CLOUDY    48  31  51 SE3       29.74S
WAHOO          FAIR      40  32  72 E6        29.73S
$$



USA.gov is the U.S. government's official web portal to all federal, state and local government web resources and services.